Theta_e
341 342 343 344 345 346 347 347 347 346 346 347 346 347 347 348 349 348 347 346 344 343 342 343 343 343 344 345 345 345 346 346 347 347 346 346 347 348 347 345 344 343 343 342 340 340 341 342 342 341 341 342 341 341 344 346 346 345 346 346 344 343 342
342 342 343 344 344 346 346 346 346 346 346 347 347 347 348 348 348 347 346 345 345 344 343 343 343 343 344 345 346 346 346 346 347 346 345 345 346 348 348 347 346 346 346 344 342 341 341 341 342 341 341 342 341 341 342 345 346 345 346 346 345 345 343
344 343 343 344 344 345 346 346 346 347 346 346 346 347 348 348 347 346 344 344 345 344 344 343 343 343 343 344 344 345 346 346 346 345 344 345 346 347 348 348 347 348 347 346 345 343 342 342 342 341 341 341 341 341 341 344 345 344 345 345 346 346 344
345 344 343 344 344 344 345 346 346 346 346 346 346 347 348 348 348 346 345 344 344 344 344 344 344 343 343 342 342 343 344 344 344 345 344 346 347 347 348 348 348 348 347 347 346 344 343 343 343 342 341 341 341 340 341 343 343 343 344 344 344 345 345
345 345 344 344 345 345 345 346 346 346 346 346 346 347 348 347 348 348 347 347 346 344 344 344 344 344 344 342 341 342 343 342 343 345 346 347 348 347 348 348 347 346 346 346 346 345 344 344 345 343 341 342 341 339 339 341 342 342 342 342 342 343 343
345 345 345 345 345 346 345 346 346 346 346 346 347 347 348 348 348 349 348 348 348 347 345 344 344 344 344 343 342 343 343 342 343 346 347 348 348 348 348 347 346 345 345 346 346 346 345 345 346 345 344 344 343 341 340 340 341 342 342 342 341 341 342
344 345 345 345 345 345 346 346 346 346 346 346 347 348 348 348 348 349 348 348 349 348 346 344 344 344 344 344 343 344 344 343 344 346 347 348 348 347 346 346 346 345 344 345 346 346 346 345 346 346 346 346 346 345 343 341 341 342 342 342 340 340 341
344 345 345 346 346 345 346 347 347 347 347 347 348 348 348 349 348 349 349 348 349 349 347 343 343 344 345 345 345 344 344 344 345 346 347 347 347 346 345 345 346 346 345 345 346 347 348 347 346 347 346 346 347 347 345 344 343 342 342 342 341 340 340
344 345 346 346 346 346 346 346 347 347 347 347 348 348 348 348 348 348 349 348 349 350 347 343 341 342 344 345 345 345 345 345 346 346 346 345 346 346 345 345 347 347 346 347 347 348 350 349 347 347 346 346 347 346 346 345 344 343 343 342 342 341 341
345 345 346 346 346 346 346 347 347 347 348 347 348 349 349 349 348 348 349 348 349 350 348 344 340 340 342 344 345 345 346 346 347 347 346 344 345 345 345 346 347 347 347 348 348 348 349 349 348 348 348 348 347 347 345 344 344 344 344 343 342 342 342
346 346 347 346 346 346 346 347 347 348 348 348 348 349 349 348 348 348 348 348 348 349 350 347 342 340 340 342 344 344 345 347 347 346 346 345 345 345 345 346 347 347 348 349 349 348 349 350 350 350 350 350 349 348 346 344 343 344 345 346 345 345 345
347 347 347 347 346 346 345 346 346 347 348 349 348 348 349 348 348 348 348 347 347 348 349 349 345 341 340 341 343 344 344 346 346 345 345 346 346 345 345 346 347 347 348 349 349 348 349 350 351 351 350 349 349 349 349 346 345 345 347 349 348 348 348
348 348 348 347 347 346 346 346 346 347 348 349 349 348 348 347 347 347 347 347 348 348 348 349 348 345 341 340 341 342 342 343 344 343 344 344 344 345 344 346 347 347 348 350 350 350 350 350 350 350 350 349 349 350 350 349 349 349 349 350 350 350 349
349 349 349 348 348 347 346 346 346 347 348 348 348 348 348 347 346 347 347 346 347 349 349 349 350 348 345 341 340 341 340 341 342 343 343 342 342 343 343 345 348 348 348 351 352 352 352 351 351 351 350 351 350 350 351 352 351 351 350 349 350 350 350
349 349 350 349 349 349 348 346 346 346 347 347 348 348 349 348 347 346 347 347 347 348 349 349 349 350 348 343 340 340 339 339 341 341 342 343 343 343 343 345 348 348 349 351 353 352 352 352 352 352 352 352 351 351 351 352 352 351 350 350 349 349 349
349 348 348 348 349 349 347 346 345 346 346 347 347 348 349 351 350 348 347 347 347 348 349 349 349 350 348 345 340 339 339 339 339 340 341 344 346 345 344 344 347 349 349 351 352 351 352 352 352 352 352 352 352 352 352 352 352 352 352 351 350 350 350
348 347 347 347 348 348 347 346 345 345 346 347 347 348 350 351 352 352 350 348 347 349 350 350 350 350 347 344 341 340 340 341 341 341 342 344 346 347 346 346 348 350 350 351 352 351 351 352 352 352 352 352 353 353 352 352 352 352 353 352 351 351 351
348 348 348 348 348 349 348 346 345 345 345 346 347 348 349 350 351 352 352 350 349 349 350 350 351 350 347 345 344 344 344 344 345 346 346 345 346 347 348 349 349 350 351 351 351 351 351 350 351 350 351 352 353 352 352 352 352 352 352 352 351 351 352
349 349 349 348 348 349 349 347 346 345 345 345 346 347 348 349 349 350 350 351 350 348 348 349 350 351 350 349 347 346 346 348 349 349 348 348 348 349 350 351 351 350 350 350 350 350 350 349 349 349 349 351 352 352 351 350 349 350 351 350 350 351 351
348 348 348 348 347 347 347 347 347 346 345 345 345 345 346 347 349 349 349 350 351 350 348 349 350 350 353 353 352 351 349 350 350 350 349 349 349 349 350 351 351 351 350 349 349 348 348 348 348 348 348 349 350 351 350 348 348 348 348 348 348 349 350
346 346 347 348 348 348 348 348 348 347 346 345 345 345 345 345 347 349 350 350 352 352 351 351 350 349 351 353 353 353 352 352 351 350 350 350 349 349 350 350 350 350 350 349 348 348 347 346 346 346 346 347 348 349 349 347 346 346 346 345 345 346 347
344 345 346 347 348 349 349 349 348 348 347 347 346 345 344 345 347 350 351 351 352 352 351 350 350 349 348 349 349 350 351 351 351 351 350 350 349 349 349 349 349 349 349 348 348 348 347 346 345 345 346 347 347 347 347 347 346 345 345 345 345 344 345
344 344 345 346 347 347 348 348 348 349 349 350 349 348 347 348 349 350 351 351 351 350 349 349 350 350 348 349 349 348 349 349 350 351 350 350 350 350 349 349 349 349 349 349 348 349 349 347 346 345 345 347 348 347 347 347 347 346 345 345 345 345 345
343 344 344 344 345 346 346 347 348 348 349 350 350 350 350 350 351 351 351 352 351 350 349 349 350 351 350 349 349 348 347 348 350 351 351 350 350 350 349 349 349 349 350 350 349 350 350 349 349 348 346 346 348 348 347 347 347 346 346 346 345 346 346
341 343 344 343 344 345 345 346 348 348 349 349 349 349 348 349 349 349 349 348 349 349 349 348 348 349 348 347 348 348 346 346 348 351 352 351 351 351 351 350 349 349 350 351 350 350 351 350 349 349 350 349 349 348 348 347 347 347 347 347 346 346 346
340 341 342 342 343 343 343 344 345 347 349 349 349 348 348 348 347 346 346 347 349 351 352 351 350 350 348 348 349 350 349 348 349 351 354 354 353 353 352 351 349 348 348 350 351 352 353 352 350 349 350 350 350 350 350 350 349 349 349 349 349 349 349
338 338 339 339 340 340 341 342 343 345 346 347 347 348 348 348 348 348 348 349 351 352 352 351 352 351 349 348 349 350 351 351 351 351 353 354 354 354 353 352 351 350 350 350 351 351 352 352 350 349 349 350 351 351 351 351 351 351 350 350 350 350 351
335 335 335 335 336 338 340 340 342 343 343 343 343 344 345 346 346 347 348 348 348 349 348 348 349 348 348 347 348 348 349 350 350 350 350 352 352 352 353 352 352 352 352 352 352 351 350 349 348 349 349 349 350 350 350 350 350 350 350 349 349 350 351
333 333 332 331 332 335 338 339 339 340 340 340 340 341 341 343 343 344 345 345 345 345 345 346 346 346 346 345 345 346 347 348 349 349 349 349 348 349 350 350 349 349 348 348 348 347 346 345 345 347 348 348 349 349 348 348 347 347 346 347 346 347 347
332 332 329 325 324 330 334 336 336 337 337 337 338 339 339 340 341 342 342 341 341 341 342 342 343 343 343 342 342 343 344 344 345 345 345 345 344 344 345 345 344 344 344 344 345 344 343 343 342 342 344 345 345 345 344 341 340 338 338 339 341 341 341
331 330 327 321 317 320 324 328 330 330 330 332 334 337 337 337 338 339 339 339 338 338 340 340 340 341 341 340 341 341 341 341 342 342 342 342 342 342 343 343 343 343 343 343 342 342 340 339 337 336 337 338 338 338 336 334 332 330 328 329 331 333 334
328 327 323 317 313 313 315 318 319 319 319 322 327 331 333 334 335 335 335 334 333 334 336 336 337 339 339 339 338 339 339 340 341 341 341 341 341 341 341 342 342 342 340 339 338 338 337 336 335 335 335 335 335 333 331 331 330 327 325 325 325 326 326
327 326 323 318 316 314 313 313 313 314 313 314 316 319 322 325 326 327 326 325 326 328 330 329 330 333 336 337 338 338 338 339 338 339 340 339 338 337 338 339 339 337 337 336 336 336 337 338 337 336 334 334 334 333 332 332 331 329 328 328 327 327 326
328 328 326 324 322 319 315 312 310 310 311 312 313 314 314 314 314 314 314 314 317 320 321 322 323 326 329 331 332 332 333 333 332 330 331 331 331 332 333 334 335 336 336 335 332 330 331 333 334 334 334 334 335 334 333 333 333 332 331 331 330 330 330
327 328 328 327 325 323 318 315 313 311 311 312 315 315 314 312 311 310 309 309 311 312 314 318 323 325 325 325 326 327 326 325 325 325 326 327 329 329 328 328 328 330 330 329 327 324 325 327 329 330 333 335 335 335 334 334 334 333 332 331 331 330 330
326 328 328 327 327 326 321 315 314 313 313 313 313 314 315 313 311 310 309 307 307 308 309 312 318 322 321 320 324 327 327 324 324 326 328 329 329 329 328 327 327 327 326 326 327 327 327 328 328 330 332 334 334 334 334 333 333 332 330 330 330 329 328
327 329 328 327 328 328 323 316 314 315 316 316 314 313 314 314 313 312 310 308 307 307 308 309 312 315 316 315 319 324 327 326 326 328 329 329 329 329 330 329 329 327 327 328 329 330 329 329 328 328 329 330 330 331 331 331 330 328 327 326 324 322 320
328 329 328 327 328 328 322 316 315 317 318 317 316 314 315 316 316 315 314 312 310 309 309 309 310 313 314 316 318 322 326 327 328 328 328 328 329 329 329 329 329 328 328 329 329 329 328 327 325 324 323 322 323 323 323 323 322 320 319 317 314 313 312
Wind_Speed
31 33 36 38 39 40 40 39 37 34 32 30 27 25 23 22 22 23 22 23 24 24 24 24 23 23 23 21 20 20 19 18 18 17 16 16 16 15 15 15 15 15 13 13 13 12 11 11 12 12 11 12 12 12 12 12 12 11 10 9 9 10 9
29 33 35 37 40 40 41 40 38 36 34 31 29 26 23 21 21 22 23 24 25 25 25 24 23 24 23 22 21 20 20 19 18 18 17 17 16 16 16 14 13 13 12 12 12 12 12 12 12 12 12 13 13 13 13 12 12 11 10 9 9 9 8
25 31 34 37 40 41 41 40 39 37 35 32 30 27 24 21 20 22 23 24 25 25 25 25 24 24 23 22 22 22 21 20 19 19 19 17 16 16 16 16 14 13 12 12 12 13 12 12 13 13 13 13 13 13 12 12 12 11 10 9 9 8 8
20 26 32 35 39 41 41 40 40 38 35 33 30 28 25 21 19 20 21 22 23 24 25 25 24 23 23 23 23 23 23 21 20 20 18 17 15 15 16 16 15 14 13 13 13 13 13 13 13 13 14 14 13 13 12 11 12 10 10 10 9 9 9
20 22 28 33 36 40 41 40 40 38 36 33 30 28 25 22 20 21 20 20 21 21 23 24 24 24 24 24 23 23 23 22 21 20 18 16 15 15 16 16 16 15 15 14 13 14 14 14 14 13 14 14 14 13 12 11 11 10 11 11 10 10 10
25 22 26 31 35 38 41 41 40 38 36 34 31 29 26 24 23 23 22 21 20 21 22 23 24 24 24 24 24 23 23 22 22 20 18 17 16 16 16 16 15 15 16 16 15 15 15 15 14 13 13 14 15 13 12 11 11 12 11 11 11 11 10
32 25 24 29 34 37 40 40 40 38 36 33 31 29 28 26 24 24 24 22 21 21 22 23 24 24 25 25 24 23 23 22 22 21 19 18 17 16 16 16 15 15 16 16 15 15 15 15 15 14 13 13 13 13 12 12 12 13 12 12 12 12 11
36 31 26 27 33 37 39 39 40 39 37 35 33 31 30 28 26 26 26 24 22 21 22 23 23 24 24 25 24 24 23 22 22 21 20 18 17 17 16 16 16 15 15 16 15 15 15 15 14 14 13 13 13 13 13 13 13 13 14 13 12 12 12
36 34 29 27 30 35 38 39 39 40 39 37 35 32 31 29 28 28 27 24 23 22 22 22 23 23 23 24 25 24 23 23 22 21 20 19 19 18 17 17 16 15 15 15 15 15 15 15 14 13 13 13 13 13 14 13 13 13 14 13 12 12 12
33 34 30 25 27 32 36 38 38 39 39 39 37 34 33 31 30 29 28 26 24 22 21 22 23 23 23 24 24 24 23 23 23 22 21 21 20 18 17 17 16 16 16 15 15 15 15 15 14 13 13 14 14 14 14 14 13 13 13 13 12 12 12
29 30 28 24 25 30 34 36 37 38 39 39 38 36 35 33 31 30 29 27 25 22 20 21 23 24 23 23 24 24 24 23 23 23 22 21 21 19 18 18 17 16 16 15 15 15 15 14 14 13 14 14 14 14 14 14 13 13 13 12 12 12 12
23 24 24 22 23 28 32 34 36 38 39 40 40 38 36 34 32 31 31 29 26 24 21 21 23 24 24 24 24 25 25 24 24 23 22 22 21 20 19 19 18 17 17 16 15 16 15 15 14 14 14 14 14 13 13 13 13 13 13 12 11 11 11
20 20 21 20 20 23 28 31 34 37 38 39 40 39 37 35 33 32 32 31 28 25 23 22 23 24 25 25 25 25 25 25 24 23 22 22 21 20 19 19 19 18 18 17 17 16 16 15 15 15 14 14 13 13 11 10 11 13 13 13 12 11 11
20 19 17 17 17 17 22 29 34 36 38 38 39 39 38 36 35 33 32 31 29 26 24 23 24 25 26 27 27 26 26 25 25 24 22 22 21 20 19 19 20 19 18 18 18 17 16 15 15 15 14 14 14 14 12 10 11 12 13 13 13 13 13
20 18 12 10 12 12 15 25 32 35 37 38 37 38 38 38 37 35 33 31 29 26 25 24 24 24 25 27 28 27 26 25 25 24 23 22 21 20 20 20 20 20 19 19 18 17 16 15 15 15 15 14 14 15 14 13 13 13 13 14 14 14 14
21 21 16 10 7 7 10 20 29 33 35 36 36 36 37 37 37 37 35 32 29 27 26 25 24 23 25 27 28 27 26 25 25 24 24 23 20 19 20 20 20 20 19 18 18 17 17 17 17 16 16 16 15 15 15 15 15 14 14 14 15 15 15
19 23 24 20 12 6 7 13 21 25 29 30 32 34 35 36 36 36 35 34 32 30 29 27 24 22 23 24 25 25 25 24 22 21 22 22 20 19 19 19 20 21 19 18 18 17 17 18 18 18 18 17 17 16 16 16 16 16 15 16 16 16 15
17 18 21 21 17 10 6 8 12 17 23 25 26 28 32 36 37 37 36 36 35 32 31 31 28 25 23 21 21 22 23 22 19 18 19 19 19 19 19 18 20 21 21 20 19 19 19 19 20 20 19 19 19 19 18 18 17 17 17 17 17 17 16
13 14 15 18 19 16 12 9 10 15 21 25 27 27 27 31 35 37 38 37 35 33 32 31 28 27 27 24 22 21 22 21 20 20 20 20 20 20 20 20 20 21 22 22 21 21 21 22 22 22 21 21 21 21 20 19 18 18 18 18 17 17 17
6 10 12 15 19 21 20 18 18 19 23 28 32 32 29 28 31 35 37 37 35 35 35 33 30 29 31 31 28 26 25 23 23 24 24 24 23 22 22 22 22 22 23 23 23 24 23 23 23 24 24 23 23 22 21 20 19 20 20 19 19 18 18
1 4 8 11 15 18 20 21 21 23 25 29 33 35 33 30 29 31 34 36 35 33 32 32 33 33 32 31 30 28 28 27 26 26 26 26 25 23 23 24 24 24 24 24 24 25 24 24 24 25 25 26 25 24 23 22 22 22 22 22 21 20 19
0 2 6 9 12 14 16 18 21 24 25 27 31 33 33 32 30 29 29 29 29 30 29 29 30 31 30 29 29 28 28 28 29 29 28 27 26 25 25 26 26 26 26 26 24 23 24 25 25 25 26 27 28 27 26 26 25 24 24 23 22 21 21
4 2 2 6 10 13 14 15 20 26 26 24 24 25 27 27 26 26 25 23 23 25 26 26 28 29 29 29 29 28 28 28 31 33 32 29 27 26 26 27 28 28 28 28 26 24 23 24 25 26 26 27 29 30 29 28 28 27 26 25 24 23 23
6 5 3 3 6 10 11 10 16 23 25 23 22 21 21 21 20 20 21 21 20 20 22 24 27 28 28 27 28 29 29 29 31 34 34 32 29 28 28 29 29 29 29 28 28 27 26 25 24 24 26 27 29 30 30 30 29 28 28 27 26 26 25
5 4 4 5 6 7 8 8 12 15 16 17 17 16 17 17 17 17 18 18 18 19 21 25 28 28 27 26 27 29 31 31 31 32 32 30 29 30 31 30 28 29 29 29 29 29 29 29 26 24 25 27 28 28 29 29 29 29 29 28 28 28 28
8 7 5 6 6 5 5 6 8 9 10 11 12 12 14 16 16 17 18 18 19 19 21 23 24 23 22 23 25 29 30 30 32 31 29 27 27 28 28 28 27 28 31 31 30 30 29 29 29 28 27 28 29 29 28 29 30 30 30 30 30 30 30
11 10 10 9 8 7 8 10 11 11 10 10 10 11 11 11 13 14 16 17 17 17 18 17 16 15 14 14 16 19 21 22 25 27 26 25 25 25 26 26 28 30 32 32 32 32 30 27 27 29 28 27 29 31 31 31 32 31 32 33 32 32 32
13 13 13 12 11 10 10 11 11 10 10 9 9 9 8 6 7 9 10 10 11 12 13 13 13 12 11 10 11 14 16 18 20 22 21 21 21 22 23 24 26 27 29 31 32 32 30 25 22 24 25 25 26 28 29 29 30 31 32 33 32 32 32
13 14 14 14 13 12 12 13 12 12 12 12 12 12 10 7 6 7 6 5 6 5 7 8 8 7 6 8 10 12 13 15 16 16 16 15 14 15 17 19 20 21 23 25 26 25 23 19 16 17 20 22 23 24 24 24 23 24 26 26 25 25 24
12 12 13 14 14 13 13 14 15 15 16 15 15 14 12 9 9 10 8 8 8 7 5 3 2 2 1 3 4 4 5 6 8 9 10 10 9 9 10 12 13 13 15 16 16 16 15 14 13 13 14 16 17 18 18 16 15 14 14 13 12 9 8
10 10 11 12 13 12 13 14 15 15 16 15 14 13 12 12 12 12 12 12 11 10 9 8 7 6 5 3 2 3 4 4 5 5 6 6 4 2 2 3 3 4 7 8 9 10 10 8 7 6 5 6 8 8 6 4 5 4 3 2 3 1 2
8 9 10 10 10 11 11 12 13 14 14 14 12 11 11 10 11 12 14 13 11 9 9 9 8 9 9 8 7 7 7 6 6 6 5 3 3 3 3 2 4 6 7 6 6 6 5 4 4 4 4 4 5 4 4 5 4 3 3 4 3 4 4
9 10 10 10 10 10 9 10 11 11 12 13 12 11 9 8 8 10 11 11 10 9 7 6 5 6 7 7 7 7 7 5 5 5 5 3 3 3 2 2 4 6 7 7 6 4 2 3 4 4 3 3 4 4 4 4 4 3 2 2 4 4 3
8 8 10 11 11 10 9 9 10 10 11 12 11 10 9 8 7 7 7 7 8 8 6 4 3 3 5 6 5 4 4 4 2 1 2 3 4 3 2 4 4 4 5 5 4 3 1 1 1 1 2 3 3 3 3 3 4 3 2 2 3 4 4
5 5 7 9 10 10 9 9 9 10 10 11 11 10 9 8 7 6 5 5 5 4 4 4 5 6 7 7 5 5 4 3 2 0 1 3 4 3 3 4 4 3 2 1 1 1 1 1 1 0 1 4 6 6 5 5 5 5 5 5 6 6 7
3 3 4 6 7 8 7 7 8 9 9 9 9 9 8 8 7 5 4 3 2 2 3 3 4 5 5 5 5 5 4 3 2 2 3 3 3 2 1 2 2 2 1 1 0 0 1 1 2 2 2 3 6 8 8 7 7 8 7 8 9 10 11
2 3 3 3 5 6 5 5 6 7 8 9 9 9 9 9 9 8 6 4 3 2 2 2 1 2 3 3 5 5 4 4 4 4 4 4 3 2 2 2 1 1 1 1 1 2 2 2 1 0 1 3 5 7 9 9 9 10 10 11 12 13 15
3 3 2 2 2 4 4 4 5 7 8 9 10 10 11 11 11 11 10 9 7 5 4 3 2 2 2 2 4 5 5 4 5 5 4 4 3 3 4 4 3 3 3 3 4 4 5 5 5 4 3 4 5 7 9 9 10 11 11 11 12 12 12
Wind_Direction
195 193 190 190 192 194 196 198 200 203 205 206 207 208 210 214 216 216 215 213 212 211 211 210 210 210 210 211 213 215 215 214 215 218 221 222 223 225 224 219 214 214 218 223 225 224 220 217 216 218 222 225 224 222 221 225 229 232 237 237 230 228 226
192 193 191 191 193 195 198 200 202 203 205 207 208 209 210 212 214 214 214 214 214 214 213 213 212 210 210 212 214 216 217 216 218 220 220 220 222 225 228 227 223 221 224 226 229 229 223 220 222 222 223 227 227 225 226 229 230 230 235 239 234 228 227
188 193 192 192 195 197 199 200 202 204 206 207 208 208 209 212 212 212 213 215 214 215 215 215 214 212 211 212 213 215 217 219 221 222 221 219 219 222 227 230 230 230 229 227 229 230 226 224 226 225 224 228 229 227 228 231 232 229 231 238 240 234 231
185 194 195 194 196 198 200 201 202 204 206 208 209 210 211 212 212 211 213 216 215 215 215 215 215 214 213 212 211 213 216 219 222 224 223 221 221 224 227 229 230 230 228 227 229 229 228 227 227 226 225 228 229 227 225 228 230 230 231 238 241 236 233
191 195 198 196 196 197 200 201 203 205 207 209 211 213 213 213 213 212 213 217 218 218 217 216 216 216 215 214 212 212 215 218 220 223 223 224 226 228 229 230 229 228 227 227 228 228 227 226 226 227 226 227 230 229 226 228 231 234 236 240 241 239 236
202 200 200 199 197 197 200 202 204 206 208 210 212 213 214 215 215 215 214 216 219 220 219 218 218 217 216 216 215 215 216 218 220 222 223 225 227 229 230 231 230 228 226 226 227 226 226 227 227 229 229 229 231 231 231 233 235 238 242 244 244 243 241
205 204 202 202 201 199 200 202 204 207 210 212 213 214 214 215 218 218 217 217 219 220 220 220 220 219 217 217 217 218 217 218 219 221 222 223 226 227 229 230 230 228 226 226 226 225 226 228 228 229 232 232 231 232 234 236 238 241 245 247 246 242 241
204 206 204 205 205 203 202 202 203 206 209 211 212 214 214 215 218 220 220 218 218 219 220 221 221 221 219 218 218 218 218 218 220 221 221 221 223 224 225 227 228 227 226 225 224 224 227 230 230 231 233 234 234 234 235 235 237 240 244 246 245 243 241
202 205 205 207 208 205 204 204 204 205 208 210 212 215 216 216 218 221 221 219 218 218 219 220 222 223 222 221 219 218 218 218 219 221 221 221 221 222 222 223 225 226 225 224 224 223 225 228 230 233 236 237 237 237 237 237 236 237 240 242 243 243 242
199 200 201 203 205 205 204 205 205 206 208 210 212 216 218 217 218 221 221 220 219 219 218 218 221 222 223 223 221 220 219 218 219 221 222 222 222 222 223 222 223 224 225 225 226 225 225 227 230 231 234 236 237 239 241 239 236 236 239 239 238 240 242
196 197 196 199 202 203 204 205 206 207 210 212 213 216 218 219 219 220 221 221 220 220 220 219 220 221 222 224 223 221 220 219 219 221 223 224 224 225 226 224 223 223 224 226 226 225 226 228 230 230 229 231 235 240 243 241 237 236 238 238 237 239 242
192 194 195 200 203 204 206 208 210 210 211 213 215 217 218 218 219 221 222 222 221 220 220 220 221 221 221 222 223 222 220 219 220 222 224 226 227 229 229 228 226 225 225 227 225 224 224 226 230 231 230 232 232 233 238 240 238 235 234 234 234 238 242
192 192 194 200 203 205 207 209 212 212 211 213 215 217 219 219 219 221 222 222 222 221 221 222 222 221 221 221 222 222 221 220 221 222 223 225 228 232 232 230 228 227 227 228 225 223 224 227 230 231 232 234 230 225 227 233 237 237 234 232 233 238 241
198 193 194 199 200 205 208 208 211 211 211 212 213 215 218 220 220 221 222 223 222 220 221 223 224 223 221 221 222 223 223 221 220 221 223 225 227 230 232 230 228 228 228 227 225 225 228 231 233 232 232 232 229 224 223 228 235 238 237 236 237 240 244
195 190 190 194 194 200 209 210 210 211 211 211 210 211 214 218 221 221 222 222 222 221 222 223 225 225 222 221 223 224 225 224 223 222 223 224 224 227 229 228 228 228 227 227 228 229 231 235 235 234 233 233 230 227 226 231 237 241 243 245 244 246 248
193 194 196 200 196 192 202 208 209 209 209 210 209 210 211 213 217 220 221 222 222 222 222 223 225 225 223 222 223 225 225 226 226 225 224 224 224 226 227 227 228 226 226 229 231 229 229 234 237 236 236 236 236 234 232 234 240 245 249 251 248 247 248
188 195 200 204 210 209 197 201 205 205 205 206 208 210 210 211 213 216 217 219 221 220 219 221 223 224 222 221 222 223 223 222 223 225 226 227 227 226 224 223 224 223 223 227 229 229 231 235 238 239 239 241 241 242 241 242 244 247 249 251 249 245 244
182 189 194 195 201 214 214 202 204 205 205 204 205 209 212 213 214 214 215 218 220 220 218 218 219 220 221 219 218 218 215 213 215 221 226 228 228 226 221 218 220 223 225 229 232 237 241 242 242 242 243 244 246 246 246 246 247 248 247 248 247 244 244
186 190 192 191 198 216 234 234 227 224 220 215 213 215 219 220 219 218 218 219 221 223 223 221 219 220 222 222 219 217 214 213 215 220 224 225 224 223 220 219 224 228 231 233 237 243 248 248 246 245 245 247 248 248 247 246 246 245 243 243 244 244 244
182 190 199 202 206 219 233 239 238 236 231 225 222 223 226 229 228 225 222 220 220 223 224 221 217 218 223 225 223 221 220 220 221 223 226 226 223 222 222 224 229 234 235 237 240 244 247 249 248 247 247 247 247 246 244 243 243 241 241 242 243 243 245
182 194 208 215 216 220 227 231 231 230 227 224 224 225 228 232 235 232 227 223 222 223 224 221 217 218 223 228 229 228 227 227 228 228 228 228 227 226 226 229 234 238 240 241 243 246 248 250 251 250 248 246 245 243 241 241 243 244 244 245 245 245 247
14 209 213 219 220 219 221 221 217 215 215 216 219 221 223 227 231 230 227 227 228 229 230 230 226 224 226 231 235 235 233 233 233 233 230 229 230 231 232 235 237 240 244 246 248 250 252 253 254 254 250 246 243 241 242 243 244 246 248 249 249 249 250
62 75 189 213 217 215 214 214 210 208 205 201 202 206 210 213 218 222 227 233 232 227 229 233 233 230 229 230 231 234 237 236 235 235 233 230 230 232 236 238 239 241 244 247 250 252 252 252 253 254 253 248 243 242 243 245 245 246 248 249 249 251 251
61 60 78 127 179 197 199 194 195 203 207 203 196 194 196 197 199 205 216 223 222 218 224 232 233 230 228 229 230 235 240 239 237 236 234 230 230 232 235 237 239 241 242 243 247 248 248 247 246 248 250 247 243 242 243 243 243 244 246 249 250 251 251
72 68 71 90 122 157 174 168 168 182 199 204 200 198 200 201 199 198 206 217 225 228 229 232 235 235 235 236 239 240 239 238 239 240 237 232 231 232 233 235 239 243 243 243 244 247 249 248 245 244 245 244 241 240 240 241 242 244 246 249 251 252 253
71 76 74 73 85 100 113 118 124 142 167 183 190 198 207 215 219 219 221 226 232 233 229 230 236 241 242 242 240 239 238 236 239 241 239 233 230 232 236 242 247 249 248 247 246 247 248 249 248 247 246 245 244 243 243 243 244 245 247 249 251 253 254
67 69 68 66 65 66 75 90 102 120 141 154 163 172 183 198 207 210 213 217 222 227 231 234 241 247 246 238 230 230 234 235 238 243 244 243 241 239 242 249 254 255 254 252 250 249 250 251 251 249 246 245 245 246 247 249 250 251 251 252 253 255 254
68 67 64 61 62 66 75 89 101 112 113 110 111 116 123 146 170 181 193 201 210 225 236 243 251 258 260 254 242 238 239 240 242 245 246 245 244 243 243 246 250 252 253 254 255 255 255 253 248 242 241 243 246 248 250 251 253 255 255 255 255 255 254
68 69 67 63 64 71 80 85 87 84 80 77 77 78 76 82 102 114 124 137 153 186 219 236 249 261 271 268 259 250 246 245 246 248 248 247 246 247 246 247 248 249 253 258 262 262 255 245 235 231 234 239 243 246 246 247 248 249 250 249 250 253 253
65 64 63 61 65 75 85 86 83 78 73 70 70 72 71 73 87 101 108 107 106 109 115 119 109 73 8 301 269 243 232 230 230 237 244 245 248 255 260 264 266 263 259 257 256 250 241 231 225 227 229 232 236 239 240 241 240 239 239 236 237 250 258
70 65 59 58 64 76 85 88 88 85 81 77 74 75 80 85 94 104 106 101 96 95 93 90 89 90 92 91 99 126 158 172 170 180 205 218 225 239 258 280 279 241 226 224 220 218 217 213 206 202 200 207 219 221 223 231 243 249 243 197 182 146 12
83 75 66 63 68 75 82 89 92 92 92 91 90 90 91 93 96 101 103 103 101 96 91 90 90 95 102 107 106 108 116 121 124 139 161 160 101 81 86 96 118 139 150 156 163 177 183 166 143 131 125 129 137 128 97 73 55 48 60 64 53 36 19
94 83 74 72 73 75 81 89 93 95 96 98 100 100 100 102 101 101 106 110 113 113 109 103 99 101 110 120 122 119 119 119 121 134 152 149 115 94 92 115 124 125 125 123 121 127 156 165 147 138 134 135 136 126 109 101 101 104 97 48 11 5 7
98 86 77 72 69 68 71 75 80 86 90 93 95 96 100 105 104 100 100 104 112 122 124 121 132 145 141 143 149 152 154 159 163 176 210 202 187 170 146 138 135 129 126 119 101 86 107 206 189 166 179 199 201 190 173 169 182 206 239 284 311 308 306
103 88 82 75 68 63 59 62 70 76 81 85 89 93 99 104 104 101 101 101 109 119 115 116 136 147 146 148 157 167 177 195 220 145 114 147 164 160 133 118 112 114 130 132 53 48 89 63 11 63 187 221 230 228 226 228 233 245 260 273 283 290 294
130 114 96 77 65 55 50 56 67 70 71 75 81 85 86 84 79 79 84 91 98 105 106 127 155 158 154 158 165 169 179 197 200 166 141 141 152 157 140 111 99 108 134 146 281 353 39 63 73 94 137 205 227 233 240 251 257 261 269 278 284 290 296
144 141 114 76 53 43 44 58 66 61 55 52 57 65 66 61 56 52 47 40 30 40 63 87 176 199 199 195 185 181 185 191 189 182 171 166 176 214 263 285 290 259 250 282 281 280 290 298 304 288 193 208 225 235 245 255 261 266 275 282 288 294 299
152 151 133 98 45 27 29 46 53 49 43 36 39 49 56 57 55 51 46 42 36 30 31 24 351 294 266 240 208 200 198 195 196 198 191 183 198 229 250 265 271 266 263 271 278 281 286 292 297 291 266 251 247 246 251 258 266 274 281 286 292 299 302